Weather Roundup
Issued by NWS Chicago, IL

Home | Current Version | Previous Version | Graphics & Text | Print | Product List | Glossary On
Versions: 1 2 3 4 5 6 7 8 9 10 11 12 13 14 15 16 17 18 19 20 21 22 23 24 25 26 27 28 29 30 31 32 33 34 35 36 37 38 39 40 41 42 43 44 45 46 47 48 49 50
923
NZUS59 KLOT 041312
HRRLOT

CHICAGO AREA WEATHER ROUNDUP
NATIONAL WEATHER SERVICE CHICAGO/ROMEOVILLE IL
700 AM CST SUN DEC 04 2016

NOTE: "FAIR" INDICATES FEW OR NO CLOUDS BELOW 12,000 FEET WITH NO
SIGNIFICANT WEATHER AND/OR OBSTRUCTIONS TO VISIBILITY.

* THESE STATIONS ARE NOT UNDER NWS QUALITY CONTROL. THEY ALSO MAY NOT
  REPORT WEATHER SUCH AS PRECIPITATION OR FOG.

ILZ005-006-012>014-019>023-041400-
NORTHEAST ILLINOIS

CITY           SKY/WX    TMP DP  RH WIND       PRES   REMARKS
OHARE          CLOUDY    32  26  78 CALM      30.17F
MIDWAY         CLOUDY    33  24  69 SE3       30.17F
AURORA         CLOUDY    33  27  78 E6        30.16F WCI  28
LANSING*       CLOUDY    31  29  92 SE3       30.18F
JOLIET*        CLOUDY    33  29  87 E5        30.16F WCI  28
WAUKEGAN       CLOUDY    32  26  78 CALM      30.17S
DUPAGE AIRPORT CLOUDY    32  26  78 CALM      30.16F
WHEELING       CLOUDY    32  24  72 CALM      30.19S
KANKAKEE*      CLOUDY    32  28  86 E6        30.16F WCI  26
MORRIS*        CLOUDY    32  29  89 CALM      30.16F
LEWIS AIRPORT* CLOUDY    31  30  95 E6        30.16F WCI  25
NORTHERLY ISL    N/A     33  25  72 S5          N/A  WCI  29
$$

WIZ051-052-058>065-066-070>072-041400-
SOUTHEAST WISCONSIN

CITY           SKY/WX    TMP DP  RH WIND       PRES   REMARKS
MILWAUKEE      CLOUDY    33  25  72 CALM      30.17F
KENOSHA*       CLOUDY    31  27  85 CALM      30.18R
RACINE*        CLOUDY    31  26  82 CALM      30.20R
BURLINGTON     MOCLDY    30  28  90 CALM      30.16F
WAUKESHA       CLOUDY    28  25  86 CALM      30.18S
WEST BEND      FLURRIES  30  27  86 CALM      30.16F
$$

INZ001>003-010>013-019-020-041400-
NORTHWEST INDIANA

CITY           SKY/WX    TMP DP  RH WIND       PRES   REMARKS
GARY*          CLOUDY    32  28  86 SE5       30.18F WCI  27
MICHIGAN CITY* NOT AVBL
RENSSELAER*    NOT AVBL
VALPARAISO     CLOUDY    32  28  85 E6        30.17F WCI  26
$$

LMZ740>746-041400-
SOUTHERN LAKE MICHIGAN

STATION/POSITION TIME  SKY/WX   TEMP WIND        PRES    VSBY
                                AIR  DIR/SP/G
                 (UTC)          (F)  (DEG/KT/KT) (MB)    (MI)
HARRISON CRIB    1240            36  180/ 10/ 12   N/A
BURNHAM HARBOR   1300            33  200/  3/  6   N/A
CALUMET HARBOR   1248            32  190/  3/  3 1021.2F
BURNS HARBOR     1240            33  150/  8/ 12 1022.4S
MICHIGAN CITY    1210            32  110/  7/  9   N/A
$$

ABBREVIATIONS USED IN REMARKS
   TC - TEMPERATURE IN CELSIUS
  WCI - WIND CHILL INDEX
   HX - HEAT INDEX
  VSB - VISIBILITY
$$




USA.gov is the U.S. government's official web portal to all federal, state and local government web resources and services.